Regional Weather Roundup
Issued by NWS

Home | Current Version | Previous Version | Text Only | Print | Product List | Glossary On
Versions: 1 2 3 4 5 6 7 8 9 10 11 12 13 14 15 16 17 18 19 20 21 22 23 24 25 26 27 28 29 30 31 32 33 34 35 36 37 38 39 40 41 42 43 44 45 46 47 48 49 50
000
ASUS43 KLSX 180907
RWRMO

WEATHER SUMMARY FOR MISSOURI
NATIONAL WEATHER SERVICE SPRINGFIELD MO
400 AM CDT FRI APR 18 2014

NOTE: "FAIR" INDICATES FEW OR NO CLOUDS BELOW 12,000 FEET WITH NO
       SIGNIFICANT WEATHER AND/OR OBSTRUCTIONS TO VISIBILITY.
       CURRENT SKY AND/OR WEATHER CONDITIONS ARE NOT AVAILABLE FOR
       CHILLICOTHE AND FARMINGTON.

MOZ001>031-035>038-043-044-053-054-181000-
...NORTHERN AND WESTERN MISSOURI...

CITY           SKY/WX    TMP DP  RH WIND       PRES   REMARKS
KANSAS CTY INT PTCLDY    37  32  82 CALM      30.27F
KANSAS C DTWN  CLEAR     38  34  85 CALM      30.28S
LEE`S SUMMIT   CLEAR     38  33  82 CALM      30.28R
ST JOSEPH      CLEAR     33  29  85 CALM      30.28S
CHILLICOTHE      N/A     31  28  89 CALM      30.30S
KIRKSVILLE     CLEAR     31  29  92 N3        30.29S

$$
MOZ066>068-077>081-088>096-101>105-181000-
...SOUTHWEST MISSOURI...

CITY           SKY/WX    TMP DP  RH WIND       PRES   REMARKS
SPRINGFIELD    PTCLDY    43  38  82 N5        30.23F
JOPLIN         CLOUDY    42  39  89 N3        30.26R

$$
MOZ032>034-039>042-045>050-055>058-069>072-181000-
...CENTRAL MISSOURI...

CITY           SKY/WX    TMP DP  RH WIND       PRES   REMARKS
COLUMBIA       CLOUDY    44  40  85 N3        30.28S
JEFFERSON CITY PTCLDY    45  39  79 NW5       30.28F
ROLLA          MOCLDY    41  38  89 CALM      30.25S
SEDALIA        CLEAR     39  37  92 CALM      30.29R FOG
WHITEMAN AFB   CLEAR     35  32  88 N1        30.28R
OSAGE BEACH    CLOUDY    43  37  81 CALM      30.27F

$$
MOZ051-052-059>065-181000-
...EAST CENTRAL MISSOURI...

CITY           SKY/WX    TMP DP  RH WIND       PRES   REMARKS
ST LOUIS INTL  PTCLDY    49  38  65 N3        30.27R
SPIRIT OF STL  PTCLDY    44  39  82 CALM      30.27S
ST CHARLES     PTCLDY    46  38  73 NE6       30.28R

$$
MOZ072>076-082>087-097>100-106>115-181000-
...SOUTH CENTRAL AND SOUTHEAST MISSOURI...

CITY           SKY/WX    TMP DP  RH WIND       PRES   REMARKS
CAPE GIRARDEAU MOCLDY    49  45  86 CALM      30.26R
FARMINGTON     CLOUDY    48  39  71 CALM      30.27R
POPLAR BLUFF   LGT RAIN  52  43  71 SE5       30.26R
WEST PLAINS    CLOUDY    50  39  66 CALM      30.25R

$$



USA.gov is the U.S. government's official web portal to all federal, state and local government web resources and services.